www.pogodaiklimat.ru

Погода и климат >> Архив погоды >> Ирак >> Erbeel


ПОГОДА в Erbeel

  • Прогноз погоды в Erbeel
  • Монитор погоды в Erbeel
  • Климат города

АРХИВ ПОГОДЫ в Erbeel

Время (UTC), дата Ветер
(напр.,м/с)
 
Видим.   Явления Облачность Т
(С)
Тd
(С)
f
(%)
Тe
(С)
Тes
(С)
Комфортность P
(гПа)
Po
(гПа)
Тmin
(С)
Tmax
(С)
R
(мм)
R24
(мм)
S
(см)
06 19.06 З 1 10 км ясно +31.5 +16.6 41 +35 +49 очень
душно
1006.0 1006.0 +24.3
09 19.06 СЗ 1 10 км ясно +35.5 +15.9 31 +38 +62 опасность
солнечного
удара
1004.3 1004.0
12 19.06 З 2 10 км ясно +37.7 +16.4 29 +40 +53 опасность
солнечного
удара
1002.7 1003.0
15 19.06 СЗ 1 10 км ясно +37.0 +17.1 31 +40 +41 очень
душно
1001.9 1002.0
18 19.06 З 1 10 км ясно +33.8 +15.0 32 +35 +35 очень
жарко
1003.4 1003.0 +38.5
03 20.06 штиль 0 10 км ясно +27.0 +16.1 51 +30 +32 душно 1003.6 1004.0
12 20.06 З 5 10 км 1/1 750 м
[Cu hum]
+36.7 +12.6 24 +37 +43 очень
жарко
1000.5 1001.0
15 20.06 З 4 10 км 1/1 750 м
[Cu hum]
+35.5 +15.5 30 +37 +38 душно 1000.4 1000.0
03 21.06 С 1 10 км ясно +24.7 +13.7 50 +27 +28 жарко 1004.4 1004.0
06 21.06 Ю 1 10 км ясно +29.5 +15.5 43 +32 +47 душно 1004.7 1005.0 +24.2
09 21.06 штиль 0 10 км ясно +32.7 +16.2 37 +35 +64 опасность
солнечного
удара
1003.8 1004.0
18 21.06 Ю 4 10 км 1/0
[Ac lent]
+30.8 +13.0 34 +32 +32 жарко 1004.0 1004.0 +35.6
03 22.06 СВ 1 9000 м мгла ясно +24.5 +14.5 54 +27 +28 жарко 1005.6 1006.0
06 22.06 С 1 10 км ясно +30.1 +14.2 38 +32 +47 жарко 1005.6 1006.0 +23.0
09 22.06 З 2 10 км 1/1 660 м
[Cu hum]
+31.8 +14.9 36 +34 +53 опасность
солнечного
удара
1005.4 1005.0
12 22.06 Ю 1 10 км 1/1 660 м
[Cu hum]
+33.2 +15.2 34 +35 +49 душно 1005.3 1005.0
15 22.06 З 1 10 км ясно +32.8 +14.6 33 +34 +36 очень
жарко
1004.1 1004.0
18 22.06 З 3 10 км ясно +29.8 +12.4 34 +31 +31 жарко 1005.3 1005.0 +34.2
03 23.06 ЮВ 1 10 км ясно +24.5 +3.7 26 +24 +25 комфорт 1007.2 1007.0
06 23.06 Ю 1 10 км ясно +31.1 +15.0 38 +33 +48 душно 1007.6 1008.0 +23.4
09 23.06 штиль 0 10 км ясно +34.0 +16.3 35 +37 +65 опасность
солнечного
удара
1006.9 1007.0
12 23.06 штиль 0 10 км ясно +36.0 +16.2 31 +38 +56 опасность
солнечного
удара
1005.0 1005.0
15 23.06 З 1 10 км ясно +35.9 +15.0 29 +37 +39 душно 1001.4 1001.0
18 23.06 З 2 10 км ясно +32.9 +14.1 32 +34 +34 очень
жарко
1005.2 1005.0 +36.9
03 24.06 штиль 0 10 км ясно +25.5 +14.1 49 +28 +29 жарко 1006.4 1006.0
09 24.06 С 1 10 км ясно +37.1 +17.0 31 +40 +65 опасность
солнечного
удара
1003.8 1004.0
12 24.06 штиль 0 10 км 1/1 750 м
[Cu hum]
+38.5 +18.2 31 +42 +58 опасность
перегрева
1002.5 1003.0
15 24.06 Ю 1 10 км ясно +38.0 +15.7 27 +40 +41 очень
душно
1001.7 1002.0
18 24.06 штиль 0 10 км ясно +34.5 +16.2 34 +37 +37 очень
душно
1001.4 1001.0 +39.3
12 25.06 З 1 10 км 1/1 750 м
[Cu hum]
+40.0 +15.0 23 +41 +55 опасность
перегрева
1000.8 1001.0
15 25.06 СЗ 1 10 км 1/1 750 м
[Cu hum]
+40.2 +14.8 23 +41 +43 опасность
перегрева
1000.4 1000.0
18 25.06 штиль 0 10 км ясно +36.0 +16.7 32 +39 +39 очень
душно
1001.6 1002.0 +40.9

 

Местоположение метеостанции Erbeel (Ирак): широта 36.15 долгота 44.00 высота над уровнем моря 420 м.

В архиве по умолчанию представлена погода в Erbeel за последнюю неделю. Архивные данные за месяц целиком и за предыдущие месяцы, начиная с января 2011 года, Вы можете получить, выбрав интересующий диапазон дат из раскрывающегося списка и нажав кнопку "Ввод!".

Внимание! Время в таблицах - всемирное. Для получения местного времени необходимо прибавить поправку, которая в Erbeel равна 3 ч.

Смотрите также архив погоды в соседних городах и на ближайших метеорологических станциях:

Погода в Salahadin (Ирак) (31 км)
Погода в Makhmoor (Ирак) (57 км)
Погода в Aqraa (Ирак) (68 км)
Погода в Mosul (Ирак) (79 км)
Погода в Kirkuk (Ирак) (84 км)
Погода в Chamchamal (Ирак) (103 км)
Погода в Dohuk (Ирак) (120 км)
Погода в Baiji (Ирак) (144 км)
Погода в Sulaimaniya (Ирак) (147 км)
Погода в Tuz (Ирак) (153 км)

Пояснения к столбцам:

Ветер - указаны скорость ветра в м/с - средняя за 10 мин, порывы в срок и между сроками (в фигурных скобках) и направление, откуда дует ветер: С - северный, СВ - северо-восточный, В - восточный, ЮВ - юго-восточный, Ю - южный, ЮЗ - юго-западный, З - западный, СЗ - северо-западный.
Видимость - горизонтальная дальность видимости в метрах или километрах. При видимости от 1 до 10 км при отсутствии осадков обычно наблюдается дымка, при ухудшении видимости до 1 км и менее - туман. В сухую погоду видимость может ухудшаться дымом, пылью или мглою.
Явления - указаны атмосферные явления, наблюдавшиеся в срок или в последний час перед сроком; фигурными скобками обозначены явления, наблюдавшиеся между сроками (за 1-3 часа до срока); квадратными скобками обозначены град или гололедные отложения с указанием их диаметра в мм.
Облачность - указаны через наклонную черту общая и нижняя облачность в баллах и высота нижней границы облаков в метрах; квадратными скобками обозначены формы облаков: Ci - перистые, Cs - перисто-слоистые, Cc - перисто-кучевые, Ac - высококучевые, As - высокослоистые, Sc - слоисто-кучевые, Ns - слоисто-дождевые, Cu - кучевые, Cb - кучево-дождевые. Подробнее классификацию облаков см. в Атласе облаков (PDF).
T - Температура воздуха - температура, измеренная на высоте 2 м над землей.
Td - Температура точки росы - температура, при понижении до которой содержащийся в воздухе водяной пар достигнет насыщения.
f - Относительная влажность воздуха - влажноcть воздуха, измеренная на высоте 2 м над землей.
Te - Эффективная температура - температура, которую ощущает одетый по сезону человек в тени. Характеристика душности погоды. При расчете учитывается влияние влажности воздуха и скорости ветра на теплоощущения человека.
Tes - Эффективная температура на солнце - температура, которую ощущает человек, с поправкой на солнечный нагрев. Характеристика знойности погоды. Зависит от высоты солнца над горизонтом, облачности и скорости ветра. Ночью, в пасмурную погоду, а также при ветре 12 м/с и более поправка равна нулю.
P - Атмосферное давление - приведенное к уровню моря атмосферное давление.
Po - Атмосферное давление - измеренное на уровне метеостанции атмосферное давление.
Tmin - Минимальная температура - минимум температуры воздуха на высоте 2 м над землей.
Tmax - Максимальная температура - максимум температуры воздуха на высоте 2 м над землей.
R - Количество осадков - Количество выпавших осадков за период времени, мм. При наведении курсора мыши на число - период времени, за который выпало указанное количество осадков.
R24 - Количество осадков - Количество выпавших осадков за 24 часа, мм.
S - Снежный покров - Высота снежного покрова, см. При наведении курсора мыши на число - состояние снежного покрова и степень покрытия местности в баллах.